Weather WX

World > North America > United States > Wisconsin

Markesan, Wisconsin Regional Weather

Lat: 43.71N, Lon: 88.99W
Wx Zone: WIZ047
Feedback

Markesan, WI Regional Weather

Expires:201907160700;;715252
ASUS43 KMKX 160621
RWRWI 

WISCONSIN REGIONAL WEATHER ROUNDUP
NATIONAL WEATHER SERVICE MILWAUKEE/SULLIVAN WI
100 AM CDT TUE JUL 16 2019

NOTE: "FAIR" INDICATES FEW OR NO CLOUDS BELOW 12,000 FEET WITH NO
SIGNIFICANT WEATHER AND/OR OBSTRUCTIONS TO VISIBILITY.


WIZ029-030-035-036-043>047-160700-
CENTRAL WISCONSIN
  
CITY           SKY/WX    TMP DP  RH WIND       PRES   REMARKS
WAUSAU         FAIR      67  66  97 SE8       29.85F                  
6HR MIN TEMP:  67; 6HR MAX TEMP:  79; 6HR PCP:  0.21;                

MOSINEE        DRIZZLE   66  64  94 NW3       29.90S                  
MARSHFIELD     LGT RAIN  68  66  93 NW14G23   29.88S                  
6HR MIN TEMP:  67; 6HR MAX TEMP:  81; 6HR PCP:  0.39;                

STEVENS POINT  LGT RAIN  67  67 100 S12       29.87F                  
6HR MIN TEMP:  66; 6HR MAX TEMP:  82; 6HR PCP:  0.45;                

WAUPACA        MOCLDY    70  69  95 S6        29.89F                  
6HR MIN TEMP:  70; 6HR MAX TEMP:  85; 6HR PCP:  0.44;                

WAUTOMA        CLOUDY    74  68  81 S6        29.94F                  
6HR MIN TEMP:  74; 6HR MAX TEMP:  84; 6HR PCP: TRACE;                

WISC RAPIDS    LGT RAIN  70  67  90 S9        29.88F                  
6HR MIN TEMP:  69; 6HR MAX TEMP:  83; 6HR PCP:  0.39;                

CAMP DOUGLAS     N/A    N/A N/A N/A S10         N/A                   
$$
 

SKY/WX - Weather  TMP - Temperature  DP - Dew Point  RH - Relative Humidity
WIND - Wind Direction/Speed PRES - Barometric Pressure VSB - Visibility
WCI - Wind Chill Index E13G22 Wind - East Wind 13 mph/Gusts of 22 mph